COSMOS 1261 DEB, 35507

Orbit data source: Space-Track

COSMOS 1261 DEB, 35507 is space debris originally from a launch on Tue, 31 Mar 1981 UTC launched from the Plesetsk Missile And Space Complex (PKMTR). Debris objects in space refer to the collection of defunct objects orbiting the Earth. Examples of debris include non-operational satellites, rocket bodies, and fragments generated from explosions, collisions, or faulty payload assembly.

Loading next visibility...
Identifier
35507, 1981-031N
Orbit
Molniya
Country
Flag of CISCIS
Related business
Manufacturer
Unknown
Mission
Spacecraft
Bus & Motor
Unknown
Mass
Unknown
Launch date (UTC)
1981-03-31 (44 years ago)
Launch vehicle
Unknown
Launch site
Plesetsk Missile And Space Complex (PKMTR)
Object type
Payload
Rocket body
Debris
Shape & HBR
Unknown
Radar Cross Section
Medium (>0.1 m² and <1 m²)

Expand to show TLE details & history
Last TLE update: 3 days ago

TLE from 3 days ago
0 COSMOS 1261 DEB
1 35507U 81031N   25256.27816718 -.00000241  00000-0  23593-2 0  9995
2 35507  62.9641 341.5645 7350224  40.0633 355.4703  2.01861747 92832
Epoch: 2025-09-13T06:40Z
TLE epoch observation values (Epoch: 2025-09-13T06:40:33.644Z)
Latitude
-0.00003°
Longitude
-111.04564°
Altitude
1,383.191 km
Speed
9.363 km/s
True Right ascension
22h 46m 26s
True Declination
0° 00' 00"
Sunlit
Object was in full shadow at epoch
Visualization orbit readout
Latitude
Unknown
Longitude
Unknown
Altitude
Unknown
Speed
Unknown
Apparent Right ascension
Unknown
Apparent Declination
Unknown
Sunlit
N/A
Visualization observer readout
Local Sidereal Time
19:09:15
Azimuth
Unknown
Elevation
Unknown
Doppler factor
Unknown
Orbital elements
Apogee altitude
39,505.148 km
Perigee altitude
629.29 km
Semi-major axis
26,445.356 km
Eccentricity
0.73502
Inclination
62.9641°
RAAN
341.5645°
Arg. of periapsis
40.0633°
True anomaly
319.36135°
Mean anomaly
355.4703°
Eccentric anomaly
343.53174°
Mean motion
0.50468 °/min
Orbital period
713.32 mins
BSTAR
0.0023593
Loading maneuver chart data...
Computing Atmospheric mass density...
Loading historical data...
Loading historical data...
Loading historical data...
Loading historical data...
Loading historical data...
Loading historical data...
Loading historical data...

Documentation

Showing up to 5 results
|